Temp
18 18 19 19 20 20 21 21 22 22 22 23 23 23 24 24 26 27 27 28 28 28 28 29 29 30 30 29 32 31 24 26 28 29 28 28 28 29 29 28 28 26 25 24 24
18 18 19 19 20 20 21 21 21 22 22 22 23 23 23 24 25 28 28 29 28 29 29 28 29 30 31 32 32 27 26 28 31 30 29 29 29 29 28 28 26 24 24 24 24
18 18 18 19 20 20 21 21 21 22 22 22 23 23 23 24 25 29 29 29 29 29 29 29 29 29 30 32 33 30 26 31 32 32 31 28 28 29 28 26 25 24 24 25 23
17 18 18 19 19 20 20 21 21 22 22 22 23 23 23 24 25 29 29 29 29 29 29 29 29 30 30 30 32 30 24 23 28 31 31 29 28 28 28 28 26 25 24 24 25
17 18 18 19 19 20 20 21 21 22 22 22 23 23 23 23 26 28 29 29 29 29 29 29 29 31 30 32 32 27 25 23 27 27 29 30 28 29 28 27 26 25 25 25 25
18 18 18 19 19 20 20 20 21 22 22 22 23 23 23 22 29 28 29 29 29 29 30 31 31 33 34 32 29 25 22 22 24 26 23 28 30 29 28 27 26 25 25 25 25
18 18 18 19 19 20 20 21 21 22 22 23 23 23 23 26 29 29 28 29 29 30 31 31 32 33 33 29 28 26 24 22 21 24 25 26 28 28 28 27 27 26 26 25 25
17 18 18 19 19 20 20 21 21 22 22 22 23 23 23 28 29 29 29 30 30 30 31 31 32 33 33 30 29 26 23 22 24 26 27 26 26 28 29 28 27 26 26 26 26
17 18 18 19 19 20 21 21 22 22 22 22 23 22 23 28 28 29 29 30 30 30 31 31 32 32 32 26 23 26 23 22 25 27 26 25 25 27 28 29 28 27 27 26 26
17 18 18 19 20 20 21 21 22 22 21 22 22 21 25 28 29 30 29 29 30 31 31 32 32 29 28 25 23 22 21 25 25 25 26 22 22 24 25 26 29 28 27 27 27
17 18 18 19 20 20 21 22 21 22 21 23 25 26 28 30 30 31 30 30 30 31 28 32 28 27 30 29 26 26 27 26 24 26 25 22 21 24 25 22 26 28 28 28 27
17 18 18 19 20 20 21 21 24 24 24 25 25 25 27 29 30 30 30 30 31 28 29 29 27 29 32 31 27 27 27 26 27 26 24 23 22 21 24 20 21 29 28 28 28
16 17 18 19 20 21 21 23 24 24 23 25 26 26 27 29 29 30 30 30 29 28 29 28 29 33 33 30 30 27 23 26 25 27 27 24 19 19 21 23 22 28 28 28 29
16 17 18 20 20 21 22 24 24 24 20 25 27 28 28 29 29 30 30 30 30 29 30 29 31 33 29 31 30 26 31 30 29 28 25 24 22 21 23 22 26 29 27 28 29
16 17 18 19 21 21 22 24 24 24 20 30 29 30 29 29 30 30 31 31 29 29 30 29 30 30 31 30 31 27 30 27 29 29 27 27 24 24 23 23 26 28 28 28 29
16 17 18 19 21 22 22 23 24 21 22 30 30 30 28 29 29 31 31 31 32 29 30 30 33 30 31 32 30 32 31 31 30 28 24 25 25 25 22 22 24 25 26 26 29
16 17 19 19 21 21 22 22 21 21 29 29 28 29 28 27 28 29 29 28 27 26 26 29 31 32 33 30 31 30 27 24 23 25 24 23 25 26 28 25 26 24 27 26 27
18 18 20 21 21 21 22 21 20 26 27 30 30 29 27 28 28 29 28 27 28 28 26 27 27 30 33 30 28 31 29 24 24 24 22 24 26 27 23 23 25 25 24 24 24
18 19 20 22 21 20 21 19 22 26 30 30 31 28 28 29 29 28 27 27 28 28 26 26 28 32 32 33 32 30 28 27 25 24 23 25 27 26 23 22 22 29 27 24 24
18 18 21 21 21 21 20 19 23 27 28 30 29 30 29 28 28 27 27 29 30 30 29 28 26 30 33 33 32 30 25 24 20 22 22 21 23 22 20 19 21 27 27 26 25
17 18 22 21 21 20 19 22 25 27 28 30 28 28 28 29 29 28 28 30 31 31 30 28 27 29 30 31 29 30 27 26 20 19 22 21 22 20 20 20 21 20 21 27 26
17 19 22 21 20 22 21 23 26 26 28 30 30 28 28 29 29 29 29 30 34 32 30 29 28 26 28 31 33 31 30 28 23 23 21 24 22 23 21 20 22 25 23 27 26
14 19 22 22 20 22 23 25 26 27 28 30 29 29 29 28 27 29 30 33 34 32 32 30 26 24 26 28 32 31 30 31 29 28 27 25 22 19 18 20 27 29 25 25 26
14 17 21 22 23 23 24 25 26 29 29 30 28 29 28 28 28 28 31 33 34 32 33 31 27 26 25 29 28 29 29 31 29 26 26 25 21 19 19 18 23 22 24 25 26
15 14 15 17 22 22 24 25 26 27 30 30 27 28 28 26 27 28 31 32 33 31 32 29 26 27 28 31 31 31 30 31 29 28 29 27 25 22 22 21 21 22 25 25 24
15 18 14 14 17 19 20 24 26 28 28 28 27 29 28 26 27 27 28 27 30 30 29 29 25 28 27 31 30 30 32 31 33 32 31 28 27 25 24 25 25 25 25 25 24
16 17 18 19 20 13 22 24 27 28 28 29 30 28 28 28 30 29 31 31 29 29 27 27 26 25 25 27 29 28 30 31 31 32 32 27 25 22 23 24 24 25 25 25 24
Height
1509 1508 1508 1508 1508 1508 1507 1507 1506 1505 1504 1502 1500 1499 1496 1493 1492 1491 1489 1489 1489 1488 1487 1483 1482 1479 1479 1481 1480 1478 1495 1501 1489 1485 1489 1487 1488 1489 1490 1494 1497 1499 1501 1511 1517
1509 1508 1507 1506 1506 1506 1505 1505 1505 1504 1503 1502 1500 1498 1496 1493 1490 1487 1488 1487 1487 1487 1486 1483 1477 1476 1475 1476 1478 1477 1493 1492 1473 1476 1483 1485 1485 1487 1491 1492 1499 1503 1509 1514 1517
1508 1507 1506 1505 1504 1504 1504 1503 1503 1502 1502 1501 1499 1498 1495 1493 1488 1482 1485 1486 1485 1485 1485 1484 1480 1478 1476 1474 1478 1476 1488 1475 1474 1477 1480 1484 1487 1487 1491 1497 1496 1501 1508 1513 1518
1507 1506 1505 1504 1503 1502 1501 1501 1501 1501 1500 1499 1498 1496 1495 1494 1493 1483 1483 1484 1484 1483 1485 1483 1481 1477 1478 1475 1481 1478 1488 1501 1478 1479 1481 1485 1488 1490 1490 1493 1497 1503 1508 1513 1517
1507 1505 1503 1502 1501 1500 1499 1499 1499 1499 1499 1498 1496 1495 1494 1492 1484 1483 1483 1483 1483 1482 1482 1481 1480 1476 1477 1473 1474 1484 1491 1506 1479 1488 1491 1486 1489 1490 1492 1494 1499 1505 1511 1514 1517
1506 1504 1503 1501 1500 1499 1498 1497 1496 1496 1496 1496 1495 1494 1492 1490 1480 1482 1483 1482 1482 1482 1479 1477 1478 1473 1471 1473 1478 1494 1492 1504 1507 1499 1506 1496 1491 1490 1496 1497 1503 1507 1511 1513 1516
1505 1504 1502 1500 1499 1498 1496 1495 1494 1494 1494 1494 1494 1492 1489 1479 1479 1482 1483 1482 1482 1481 1479 1479 1477 1474 1473 1482 1493 1492 1502 1514 1501 1500 1502 1496 1493 1495 1497 1499 1504 1508 1511 1514 1515
1503 1502 1501 1499 1498 1496 1495 1493 1493 1492 1493 1493 1492 1491 1484 1477 1477 1477 1478 1479 1480 1480 1479 1478 1476 1477 1473 1481 1489 1493 1499 1520 1499 1503 1500 1503 1509 1496 1498 1502 1506 1510 1512 1514 1516
1502 1500 1499 1497 1496 1494 1493 1491 1491 1491 1491 1491 1492 1490 1480 1475 1475 1476 1477 1478 1479 1478 1478 1477 1476 1476 1473 1489 1506 1503 1524 1527 1513 1504 1506 1508 1512 1502 1501 1501 1503 1507 1512 1513 1514
1501 1499 1497 1495 1494 1493 1491 1490 1488 1489 1490 1490 1490 1492 1475 1470 1470 1470 1474 1476 1476 1475 1475 1475 1474 1476 1474 1489 1520 1514 1519 1516 1513 1505 1504 1521 1512 1506 1503 1504 1503 1504 1507 1511 1512
1500 1497 1495 1494 1492 1491 1490 1489 1490 1489 1487 1482 1478 1472 1468 1469 1469 1468 1471 1473 1474 1473 1476 1470 1480 1488 1476 1475 1483 1493 1501 1507 1499 1494 1510 1520 1513 1501 1499 1505 1505 1502 1504 1507 1510
1498 1496 1494 1492 1491 1489 1489 1488 1486 1488 1480 1475 1473 1473 1468 1468 1469 1467 1469 1472 1472 1476 1469 1474 1484 1471 1464 1468 1483 1491 1499 1503 1495 1489 1501 1518 1516 1508 1497 1510 1507 1496 1497 1500 1504
1497 1494 1492 1490 1489 1488 1487 1485 1485 1485 1481 1467 1464 1466 1465 1467 1467 1466 1468 1468 1470 1474 1471 1478 1468 1461 1464 1475 1481 1492 1504 1495 1496 1483 1490 1517 1538 1525 1508 1501 1504 1488 1490 1493 1496
1495 1493 1490 1489 1490 1486 1485 1485 1485 1485 1489 1461 1453 1456 1463 1464 1462 1461 1464 1468 1467 1472 1467 1468 1459 1461 1473 1472 1466 1497 1479 1475 1479 1486 1513 1503 1535 1522 1509 1495 1476 1477 1483 1488 1489
1493 1491 1489 1488 1486 1485 1485 1484 1485 1485 1517 1439 1446 1449 1454 1461 1452 1456 1459 1463 1465 1465 1465 1469 1462 1465 1467 1467 1463 1479 1466 1473 1472 1475 1488 1491 1514 1508 1497 1491 1471 1466 1477 1485 1484
1491 1488 1487 1485 1484 1485 1485 1485 1485 1497 1498 1444 1443 1447 1453 1455 1454 1457 1458 1459 1460 1462 1459 1459 1453 1455 1457 1455 1457 1456 1458 1460 1465 1476 1522 1507 1508 1509 1502 1487 1474 1473 1481 1482 1485
1488 1484 1483 1482 1482 1483 1484 1485 1495 1501 1441 1445 1448 1446 1451 1456 1455 1454 1458 1461 1471 1483 1480 1462 1456 1449 1450 1461 1455 1462 1477 1514 1523 1518 1526 1501 1507 1496 1472 1472 1471 1483 1488 1478 1480
1483 1479 1478 1478 1480 1483 1483 1486 1502 1460 1451 1435 1436 1441 1455 1452 1454 1453 1457 1467 1458 1463 1475 1483 1485 1453 1444 1452 1466 1462 1473 1512 1533 1532 1528 1498 1505 1491 1487 1484 1491 1491 1490 1487 1493
1478 1474 1473 1474 1477 1482 1484 1493 1477 1454 1439 1436 1429 1447 1451 1447 1449 1454 1456 1459 1454 1456 1478 1480 1474 1440 1439 1440 1446 1462 1479 1469 1503 1504 1517 1499 1486 1481 1485 1492 1489 1478 1478 1476 1481
1475 1473 1470 1472 1475 1480 1483 1483 1466 1451 1445 1437 1445 1438 1448 1446 1451 1455 1454 1443 1446 1444 1446 1455 1481 1446 1436 1435 1439 1450 1458 1498 1507 1532 1536 1520 1508 1511 1508 1505 1491 1478 1484 1479 1481
1476 1474 1466 1470 1474 1479 1482 1470 1459 1449 1447 1443 1443 1447 1443 1441 1439 1447 1448 1437 1433 1436 1440 1445 1462 1454 1441 1444 1452 1452 1467 1470 1492 1510 1520 1533 1517 1501 1497 1494 1497 1500 1499 1486 1485
1477 1475 1470 1471 1475 1472 1472 1463 1457 1448 1444 1440 1438 1442 1442 1436 1433 1437 1440 1432 1423 1427 1442 1439 1450 1469 1455 1430 1423 1431 1445 1453 1489 1503 1500 1498 1516 1495 1493 1491 1491 1488 1493 1490 1489
1479 1475 1470 1471 1473 1469 1463 1458 1454 1448 1443 1439 1440 1438 1432 1437 1446 1429 1425 1420 1420 1425 1432 1434 1455 1481 1468 1445 1422 1436 1435 1436 1444 1452 1477 1493 1512 1496 1492 1474 1464 1466 1480 1489 1491
1481 1477 1470 1468 1465 1462 1460 1456 1451 1442 1440 1437 1439 1434 1435 1436 1429 1434 1423 1418 1419 1422 1425 1430 1445 1460 1479 1456 1444 1450 1441 1432 1442 1469 1471 1475 1491 1493 1485 1477 1472 1476 1481 1488 1489
1480 1482 1480 1476 1464 1466 1461 1453 1449 1444 1436 1437 1440 1438 1437 1445 1438 1435 1422 1421 1419 1421 1425 1432 1454 1446 1442 1436 1433 1434 1439 1433 1444 1444 1457 1457 1463 1470 1468 1468 1468 1472 1479 1482 1490
1478 1480 1480 1474 1467 1466 1458 1451 1447 1436 1433 1436 1441 1437 1436 1441 1438 1440 1430 1430 1429 1422 1427 1428 1453 1442 1450 1435 1433 1436 1428 1430 1423 1428 1432 1441 1452 1448 1459 1462 1465 1468 1472 1479 1488
1478 1475 1472 1461 1467 1474 1455 1447 1441 1435 1431 1429 1430 1433 1435 1432 1427 1427 1424 1421 1424 1429 1432 1432 1443 1453 1466 1442 1440 1454 1434 1429 1424 1421 1423 1447 1447 1453 1461 1462 1463 1468 1474 1477 1485
Wind_Speed
6 6 7 8 9 9 8 9 9 9 10 12 14 17 19 19 15 14 16 8 10 14 15 17 17 20 24 25 5 10 5 5 5 8 7 20 9 10 16 14 9 5 30 34 35
7 7 7 8 10 10 10 10 10 10 11 12 14 16 17 19 18 16 14 10 13 17 18 15 23 24 18 16 3 4 3 9 9 7 9 15 16 15 10 16 25 26 26 31 34
8 8 7 8 9 10 11 12 12 11 12 13 14 15 16 17 16 13 9 12 14 14 15 16 17 25 28 21 6 4 4 1 11 14 13 21 16 13 11 5 28 32 30 32 35
9 9 9 8 9 9 11 12 13 13 12 12 14 15 14 13 2 4 10 8 11 14 13 16 16 25 10 6 13 5 36 45 12 18 12 9 14 6 12 11 32 34 34 31 24
9 9 10 10 9 10 10 11 13 13 13 13 13 14 13 8 14 5 7 10 12 14 16 17 24 26 4 3 13 19 26 16 33 30 17 13 10 8 17 31 30 32 31 31 27
10 10 10 10 10 10 10 11 11 12 12 12 12 12 13 9 9 13 8 6 10 11 17 20 26 23 3 4 9 18 36 21 6 19 28 12 8 11 18 27 28 32 30 29 28
11 11 11 10 10 10 10 11 11 10 10 10 11 12 16 25 4 6 11 10 13 14 19 21 21 18 23 15 28 31 25 15 10 12 10 23 4 8 15 27 26 27 29 26 27
12 12 12 11 11 11 11 10 10 9 9 9 9 11 13 10 15 12 8 13 14 15 16 15 15 16 16 17 8 8 8 4 4 3 10 5 0 4 19 22 23 25 27 28 25
12 12 12 12 12 11 10 10 8 7 7 8 7 8 14 3 14 16 15 18 15 17 18 18 19 13 22 10 7 8 3 8 7 3 7 9 3 8 5 18 19 26 26 28 26
13 12 12 12 13 12 9 9 7 7 7 8 10 9 14 15 17 14 14 17 19 21 22 23 21 5 5 5 6 8 3 7 7 2 6 13 16 14 18 8 18 22 28 29 28
14 13 13 13 12 12 9 8 4 3 12 14 11 18 9 2 4 5 12 17 19 21 7 21 4 6 1 5 6 8 12 13 9 8 7 5 12 15 16 19 13 22 26 23 30
16 14 13 12 11 11 11 7 4 16 11 19 26 27 31 17 5 11 9 12 15 8 9 7 8 9 8 7 13 8 8 8 13 11 10 16 15 11 11 13 24 24 29 27 27
17 15 14 12 9 9 9 12 9 10 9 17 26 25 27 19 11 19 16 16 9 10 13 9 13 13 3 10 1 8 6 7 11 12 19 12 3 6 7 23 33 11 20 32 27
18 16 14 10 7 5 9 8 10 6 4 7 12 24 25 23 14 24 17 20 10 11 14 9 13 5 4 12 8 8 5 22 19 11 7 19 4 10 10 22 8 13 17 28 32
19 17 12 10 7 8 5 1 7 5 3 7 13 11 18 24 8 16 19 22 13 11 7 14 10 2 10 15 7 12 19 22 22 5 7 2 4 4 4 5 6 14 18 15 38
20 19 12 12 12 4 3 3 5 2 7 4 6 7 11 19 26 15 16 16 18 10 13 15 14 9 21 16 9 5 3 7 5 1 5 0 4 4 5 9 9 9 14 25 24
21 21 14 14 8 2 3 8 1 4 8 11 7 10 9 10 14 10 11 8 8 6 11 14 15 8 11 4 4 1 5 4 6 5 2 6 3 7 8 9 15 7 13 41 37
21 19 12 13 11 6 2 1 5 10 10 6 11 13 9 9 10 13 6 8 9 8 6 10 12 12 7 6 8 5 5 4 4 3 5 3 3 1 18 23 28 33 28 43 14
21 13 10 8 15 10 5 5 6 7 11 14 8 9 8 11 8 10 11 10 10 11 9 6 12 11 11 7 7 6 2 5 4 3 0 3 2 9 16 18 26 6 18 35 29
21 10 13 5 13 13 4 6 7 17 23 12 6 7 5 12 12 11 10 11 10 15 12 13 7 11 12 10 10 8 10 4 3 4 3 6 4 3 11 20 22 13 10 24 31
14 5 6 21 15 10 5 6 13 26 27 5 9 10 11 8 14 9 12 12 13 11 15 11 7 18 7 5 11 6 5 6 7 5 6 2 3 5 13 12 4 19 31 18 19
4 3 14 12 7 6 9 6 12 26 31 5 4 9 13 11 5 12 10 9 18 14 9 11 5 6 11 13 14 10 8 9 5 6 6 6 4 10 11 16 18 1 13 15 16
9 10 11 17 4 7 11 18 23 21 20 4 6 9 11 9 6 8 10 13 11 8 4 4 3 4 11 10 4 6 8 7 4 4 5 4 4 8 12 7 18 19 7 8 18
4 3 2 19 19 13 10 12 17 26 13 12 8 9 8 8 8 8 5 6 5 8 5 4 3 7 7 5 3 6 13 7 6 2 3 5 11 12 9 13 23 14 15 15 16
4 3 6 5 7 10 17 14 18 17 13 10 7 9 9 7 8 9 6 6 6 11 3 3 5 6 8 7 6 6 12 9 9 8 3 10 10 25 22 21 33 27 27 21 18
5 2 7 8 14 15 12 17 18 19 6 7 9 11 10 8 8 11 8 7 5 3 8 3 6 5 7 3 5 5 12 13 2 4 4 10 5 13 21 21 21 27 29 25 22
7 9 7 11 4 7 11 9 13 12 16 18 9 10 8 10 15 15 16 10 7 4 5 7 3 3 7 9 6 5 15 13 8 2 2 6 6 10 6 10 24 26 31 30 27
Wind_Direction
334 308 292 281 278 278 278 282 289 295 299 308 313 317 316 311 300 276 264 274 285 285 291 293 298 302 285 263 144 121 80 331 289 107 139 150 136 140 124 98 102 125 157 148 154
345 327 307 289 281 278 278 278 281 288 296 304 309 314 315 315 312 262 216 262 271 279 276 297 303 309 294 245 161 93 103 169 76 106 141 172 143 120 106 117 108 113 139 147 158
344 337 325 309 290 280 277 277 280 283 290 298 306 310 316 321 320 267 237 256 274 264 265 285 296 305 301 305 167 147 183 198 74 79 132 94 91 121 125 110 132 139 150 157 158
338 336 331 321 309 297 284 276 274 278 283 292 303 308 314 313 280 293 241 243 257 254 269 288 285 277 288 335 134 171 38 345 31 82 92 129 137 139 142 152 139 143 148 159 170
335 332 330 326 319 311 298 284 275 272 277 287 299 306 316 293 247 275 296 261 250 253 268 277 275 279 188 203 55 57 81 24 43 15 351 99 139 120 121 128 138 147 155 165 168
329 328 327 323 318 313 305 295 280 269 269 280 292 300 307 266 218 227 313 236 245 262 283 282 282 299 266 111 72 97 83 62 49 309 309 351 136 112 133 134 142 151 164 173 175
327 326 323 321 317 312 306 301 288 271 263 269 285 294 285 255 223 224 271 261 258 260 274 292 312 348 326 90 106 97 99 151 160 266 282 347 51 121 144 139 148 160 167 176 182
328 323 321 318 314 314 308 304 293 274 261 264 279 291 272 272 244 261 253 258 258 264 271 280 305 313 294 108 58 58 93 334 207 225 291 18 63 14 143 149 160 171 175 178 191
328 322 319 316 313 313 312 303 290 270 255 256 272 289 270 266 252 257 241 252 250 253 260 267 277 282 284 98 42 26 74 296 295 176 262 37 9 341 306 171 178 173 179 183 191
331 323 316 312 313 312 309 294 273 253 240 250 239 283 256 238 236 254 232 231 249 260 253 248 258 256 286 138 163 186 140 237 267 31 123 8 351 333 320 304 191 179 177 187 191
336 325 315 310 311 310 301 295 302 237 218 216 208 217 273 244 295 234 217 219 242 264 264 240 225 251 292 115 150 159 125 163 317 246 149 167 173 265 288 316 270 182 175 188 191
337 327 316 308 307 302 296 268 262 339 295 279 255 247 269 275 297 257 238 234 219 252 265 273 236 190 154 170 160 168 143 221 224 252 154 161 203 255 346 322 296 195 181 192 196
337 328 316 309 303 297 287 277 270 336 294 279 245 234 242 253 229 260 219 243 250 229 255 233 243 240 167 140 188 132 145 233 229 252 187 156 261 217 185 241 260 219 199 192 200
334 329 319 307 294 274 307 8 335 328 302 261 204 234 224 242 252 246 233 205 245 227 242 251 261 208 210 240 180 130 171 257 246 234 155 180 127 223 200 217 218 254 245 205 195
331 325 320 295 260 253 342 76 294 276 291 158 178 189 190 210 251 203 218 214 230 237 231 248 255 25 303 246 233 211 191 225 240 263 134 65 90 207 281 292 238 259 254 260 192
327 320 311 281 259 236 327 339 287 294 251 157 124 165 179 199 240 251 223 244 229 256 265 257 255 162 236 256 65 348 28 334 279 270 84 89 93 201 200 217 240 241 282 283 222
322 312 291 254 229 222 250 284 231 233 296 148 166 167 197 195 226 237 196 233 198 215 261 278 273 240 218 84 120 0 50 341 6 29 281 16 77 239 257 196 201 219 128 254 259
320 304 274 245 209 170 77 254 249 247 238 279 165 172 175 208 213 246 222 197 232 234 224 242 277 254 232 180 187 190 189 144 172 220 246 321 191 270 77 48 319 292 201 230 168
325 304 267 221 201 187 228 229 226 239 329 324 126 154 188 201 188 208 236 191 209 206 225 234 241 252 219 225 164 158 121 108 123 164 272 225 159 40 56 31 312 300 94 104 128
327 297 245 174 186 181 227 244 272 289 299 324 356 185 243 191 191 184 227 206 216 196 207 256 297 273 268 194 229 184 159 122 339 102 294 293 3 112 101 127 260 316 47 108 125
333 303 199 187 172 192 223 244 264 274 278 320 316 337 313 281 181 202 221 245 204 228 194 224 205 275 322 192 201 240 187 70 107 143 163 258 83 190 176 198 264 323 328 100 115
332 270 167 168 175 204 234 243 260 276 287 268 311 294 293 317 246 195 217 216 198 203 189 213 199 253 246 277 205 201 214 179 135 205 221 158 153 145 160 168 171 262 320 112 112
335 285 198 192 233 229 242 252 263 276 284 257 224 261 287 299 336 305 195 241 225 171 202 250 237 286 321 310 148 200 237 220 210 174 200 135 177 139 223 84 150 186 236 153 130
332 323 325 214 249 279 271 261 254 261 267 286 312 302 297 308 301 297 178 237 171 149 193 87 281 176 216 230 197 296 325 233 211 156 220 151 147 196 204 162 189 213 206 155 133
236 157 272 293 246 314 288 281 287 286 243 232 293 293 297 311 317 302 280 292 233 129 100 135 253 278 279 283 232 192 276 240 204 218 187 201 175 183 187 179 197 208 162 144 140
290 128 215 233 289 282 287 253 271 288 236 210 198 246 264 274 269 285 14 353 286 162 153 235 246 292 306 266 218 229 270 287 247 229 243 144 114 171 175 161 147 150 152 159 174
313 325 319 284 294 355 290 300 284 263 298 299 216 217 251 253 269 325 298 272 301 346 216 186 172 244 265 283 250 239 238 244 226 60 135 128 154 140 175 173 151 162 164 169 177